Regional Weather Roundup
Issued by NWS Portland, ME

Current Version | Previous Version | Text Only | Print | Product List | Glossary Off
Versions: 1 2 3 4 5 6 7 8 9 10 11 12 13 14 15 16 17 18 19 20 21 22 23 24 25 26 27 28 29 30 31 32 33 34 35 36 37 38 39 40 41 42 43 44 45 46 47 48 49 50

000
ASUS41 KGYX 130105
RWRGYX
WEATHER ROUNDUP FOR MAINE AND NEW HAMPSHIRE
NATIONAL WEATHER SERVICE GRAY ME
800 PM EST TUE DEC 12 2017

MEZ002-005-006-010-012-015-018-020-021-024-026-027-029-130200-
MAINE

CITY           SKY/WX    TMP DP  RH WIND       PRES   REMARKS
PORTLAND       LGT RAIN  31  31 100 W13G18    29.31F FOG
SANFORD        CLOUDY    27  26  96 N8        29.30F
BAR HARBOR     RAIN      36  35  96 N7        29.37F FOG
WISCASSET      LGT RAIN  33  33 100 CALM      29.31F
ROCKLAND       RAIN      39  38  96 NE12G21   29.31F FOG
FRYEBURG       LGT SNOW  26  26 100 CALM      29.33F FOG
LEWISTONAUBURN FLURRIES  28  26  92 N8        29.31F
AUGUSTA        FRZ RAIN  27  25  92 N12       29.34F FOG     WCI  17
WATERVILLE     LGT SNOW  26  25  96 NE14      29.31F FOG     WCI  14
BANGOR         FRZ RAIN  28  27  96 N12       29.41F FOG     WCI  18
GREENVILLE       N/A     26  25  96 E16G23    29.33F WCI  14
MILLINOCKET    LGT SNOW  20  18  92 N7        29.50F VSB 1
HOULTON        LGT SNOW  25  23  92 E12       29.53F FOG     WCI  14
PRESQUE ISLE   LGT SNOW  21  20  96 N3        29.57F FOG
FRENCHVILLE    LGT SNOW  17  14  88 NE9       29.57F FOG
CARIBOU        LGT SNOW  25  21  85 E9G20     29.57F FOG
$$

NHZ002-005-008-009-011-012-014-130200-
NEW HAMPSHIRE

CITY           SKY/WX    TMP DP  RH WIND       PRES   REMARKS
PORTSMOUTH     CLOUDY    31  30  96 W3        29.29S FOG
ROCHESTER      CLOUDY    27  27 100 NW10      29.30F WCI  17
NASHUA         MOCLDY    31  30  96 NW9       29.33F
MANCHESTER     CLOUDY    30  28  92 NW7       29.31F
CONCORD        FLURRIES  28  25  88 NW7       29.33F
LACONIA        LGT SNOW  26  24  92 CALM      29.33F FOG
PLYMOUTH       LGT SNOW  27  26  96 CALM      29.33F
BERLIN         LGT SNOW  25  23  92 N5        29.31F VSB 3/4
WHITEFIELD     LGT SNOW  26  26 100 CALM      29.31S VSB 1
JAFFREY        CLOUDY    29  28  96 CALM      29.30F
KEENE          MIX PCPN  31  30  96 CALM      29.35S
LEBANON        CLOUDY    28  26  92 CALM      29.34F
MT WASHINGTON  SNOW      21  21 100 S39G51      N/A  VSB 0   WCI   1
$$

VTZ005-007-008-130200-
VERMONT

CITY           SKY/WX    TMP DP  RH WIND       PRES   REMARKS
ST JOHNSBURY     N/A     28  28 100 MISG      29.32F
MONTPELIER     LGT SNOW  27  27 100 CALM      29.35F FOG
BURLINGTON     LGT SNOW  29  26  89 NW20      29.39R VSB 1   WCI  16
$$

MAZ007-012-024-CTZ003-RIZ002-NYZ038-NYZ072-130200-
SOUTHERN NEW ENGLAND AND NY

CITY           SKY/WX    TMP DP  RH WIND       PRES   REMARKS
BOSTON         LGT RAIN  37  36  96 NW12      29.31R
WORCESTER      CLOUDY    33  31  92 W8        29.29F
NANTUCKET      CLOUDY    47  47 100 CALM      29.29F FOG
PROVIDENCE     CLOUDY    40  38  93 W9        29.33S
HARTFORD       CLOUDY    35  33  92 NW12G18   29.38R
ALBANY         CLOUDY    29  17  61 W21G32    29.47R WCI  16
NEW YORK CITY  FLURRIES  37  29  72 NW25G36   29.47R
$$

ANZ081-ANZ082-ANZ150-NHZ014-MEZ023>029-130200-
COASTAL MARINE OBSERVATIONS

STATION/POSITION TIME  TEMP    WIND        PRES    WAVE
                       AIR SEA DIR/SP/G            HT/PER
                 (UTC) (F)     (DEG/KT/KT) (MB)    (FT/S)
MOUNT DESERT ROC 0000   49      90/ 28/ 31  995.0F
MATINICUS ROCK   0000   48     100/ 29/ 34  992.8F
ISLE OF SHOALS   0000   45     180/  2/  3  991.5F
JEFFREYS LEDGE   0036      47                N/A     6/ 6
GEORGES BANK BUO 2350   55 53               995.9    7/ 6
$$

.............KEY..............
   WCI - WIND CHILL
   TC  - TEMPERATURE IN CELSIUS
   VSB - VISIBILITY IN MILES
   HX  - HEAT INDEX
   FAIR- INDICATES FEW OR NO CLOUDS BELOW 12,000 FT, WITH NO
         SIGNIFICANT WEATHER AND/OR OBSTRUCTIONS TO VISIBILITY.






USA.gov is the U.S. government's official web portal to all federal, state and local government web resources and services.